Simultaneous Nadir Overpasses (SNOs) Predictions

Prediction of SNOs between GOES-17 and METOP-B Satellite Orbit:

Table of predicted SNOs for the next 14.0 days since TLE Epoch: 8/15/2025
Index Date Time (GOES-17) GOES-17 Lat,Lon METOP-B Lat,Lon Distance(km) Time Diff (sec)
1 08/17/2025 15:01:51 0.02, -89.51 0.03, -89.49 2.54 80
2 08/20/2025 02:57:36 -0.02, -89.48 0.08, -89.15 38.74 80
3 08/21/2025 15:19:08 0.04, -89.52 0.99, -93.73 479.35 80
4 08/22/2025 14:55:51 0.02, -89.53 -0.16, -88.76 88.14 80
5 08/24/2025 03:17:33 -0.04, -89.51 -0.88, -93.38 441.24 80
6 08/25/2025 02:54:15 -0.03, -89.52 0.22, -88.40 126.99 80
7 08/26/2025 15:15:48 0.05, -89.58 0.79, -93.00 389.30 80
8 08/27/2025 14:52:30 0.03, -89.59 -0.31, -88.01 178.92 80
9 08/29/2025 03:14:12 -0.06, -89.57 -0.72, -92.64 349.88 80
